Regional Weather Roundup
Issued by NWS

Home | Current Version | Previous Version | Graphics & Text | Print | Product List | Glossary Off
Versions: 1 2 3 4 5 6 7 8 9 10 11 12 13 14 15 16 17 18 19 20 21 22 23 24 25 26 27 28 29 30 31 32 33 34 35 36 37 38 39 40 41 42 43 44 45 46 47 48 49 50

000
ASUS43 KDMX 172206
RWRIA

WEATHER ROUNDUP FOR IOWA
NATIONAL WEATHER SERVICE DES MOINES IA
400 PM CST TUE JAN 17 2017

NOTE: "FAIR" INDICATES FEW OR NO CLOUDS BELOW 12,000 FEET WITH NO
SIGNIFICANT WEATHER AND/OR OBSTRUCTIONS TO VISIBILITY.

* - THESE STATIONS ARE NOT NWS STATIONS...THUS NOT UNDER NWS
QUALITY CONTROL.  THEY ALSO DO NOT REPORT WEATHER SUCH
AS PRECIPITATION OR FOG.

IAZ001>003-012>014-020>022-031>034-043>046-172300-
   NORTHWEST IOWA

CITY           SKY/WX    TMP DP  RH WIND       PRES   REMARKS
CARROLL *      CLOUDY    32  32 100 VRB5      30.05R FOG     WCI  27
CHEROKEE *     CLOUDY    31  31  99 W5        30.04R WCI  26
DENISON *      CLOUDY    30  30 100 W6        30.04R FOG     WCI  24
LE MARS *      SUNNY     32  27  80 W5        30.05S WCI  27
ORANGE CITY *  SUNNY     30  28  93 W3        30.02S
SHELDON *      SUNNY     30  30 100 W10       30.00S WCI  21
SIOUX CITY     SUNNY     35  28  75 W5        30.05S WCI  31
SPENCER        SUNNY     32  28  85 W10       30.01S WCI  24
STORM LAKE *   PTSUNNY   30  28  93 W10       30.03R WCI  21
$$

IAZ055>058-069>071-079>083-090>094-172300-
   SOUTHWEST IOWA

CITY           SKY/WX    TMP DP  RH WIND       PRES   REMARKS
ATLANTIC *     CLOUDY    32  32 100 W6        30.08R WCI  26
AUDUBON *      CLOUDY    32  30  93 CALM      30.07R FOG
CLARINDA *     CLOUDY    36  34  93 W7        30.12R WCI  30
COUNCIL BLFS * PTSUNNY   32  30  93 CALM      30.09R
CRESTON *      CLOUDY    34  34 100 W12       30.08R WCI  25
HARLAN  *      CLOUDY    30  30 100 W9        30.10R WCI  22
LAMONI         CLOUDY    36  34  92 SW10      30.07R FOG     WCI  28
RED OAK *      CLOUDY    34  32  93 W7        30.10R WCI  28
SHENANDOAH *   CLOUDY    34  32  93 SW8       30.12R WCI  27
$$

IAZ047>049-059>061-072>074-084-172300-
   CENTRAL IOWA

CITY           SKY/WX    TMP DP  RH WIND       PRES   REMARKS
AMES           CLOUDY    34  33  96 NW9       30.04R FOG     WCI  27
ANKENY *       CLOUDY    34  32  93 NW12      30.06R WCI  25
BOONE *        CLOUDY    34  34 100 NW8       30.03R WCI  27
CHARITON *     CLOUDY    36  34  93 W8        30.06R FOG     WCI  29
DES MOINES     CLOUDY    36  33  89 W9        30.05R WCI  29
GRINNELL*      CLOUDY    33  33  99 W14       30.03R FOG     WCI  23
KNOXVILLE *    CLOUDY    36  34  93 W12       30.04R WCI  27
MARSHALLTOWN   CLOUDY    33  32  96 W15       30.01R FOG     WCI  23
NEWTON *       CLOUDY    34  34 100 W10       30.03R FOG     WCI  26
PELLA *        CLOUDY    36  34  93 W8        30.06R WCI  29
PERRY *        CLOUDY    35  34  99 W8        30.05R WCI  28
$$

IAZ004>006-015-016-023>025-035-036-172300-
   NORTH CENTRAL IOWA

CITY           SKY/WX    TMP DP  RH WIND       PRES   REMARKS
ALGONA *       CLOUDY    32  32 100 W8        30.01R FOG     WCI  25
CLARION *      CLOUDY    32  32 100 W10       30.02R FOG     WCI  24
ESTHERVILLE    CLOUDY    30  30 100 W7        30.00S FOG     WCI  23
FORT DODGE *   CLOUDY    34  28  80 MISG      30.04R
MASON CITY     CLOUDY    32  31  96 NW12      30.00S FOG     WCI  23
FOREST CITY *  FOG       32  32 100 NW8       30.00R VSB 3/4 WCI  25
WEBSTER CITY * CLOUDY    34  34 100 W10       30.01R FOG     WCI  26
IOWA FALLS *   CLOUDY    33  32  95 W9        30.01R FOG     WCI  26
$$

IAZ007>011-017>019-026>030-037>042-050>054-066-172300-
   NORTHEAST IOWA

CITY           SKY/WX    TMP DP  RH WIND       PRES   REMARKS
CEDAR RAPIDS   CLOUDY    33  32  96 W14       29.98R FOG     WCI  23
CHARLES CITY * FOG       32  32 100 NW13      29.98R VSB 1/4 WCI  22
CLINTON *      CLOUDY    35  34  96 W15       29.97R FOG     WCI  25
DECORAH *      LGT SNOW  34  34 100 VRB6G12   29.94R WCI  29
DUBUQUE        CLOUDY    33  32  96 W14       29.93R FOG     WCI  23
MONTICELLO *   CLOUDY    34  32  93 W10       29.96R FOG     WCI  26
OELWEIN *      FOG       32  32 100 W15       29.97R VSB 1/2 WCI  22
WATERLOO       CLOUDY    33  31  92 NW10      29.99R FOG     WCI  25
$$

IAZ064-065-067-068-078-172300-
   EAST CENTRAL IOWA

CITY           SKY/WX    TMP DP  RH WIND       PRES   REMARKS
DAVENPORT      CLOUDY    35  33  92 W14       29.98R FOG     WCI  26
IOWA CITY      CLOUDY    36  34  92 W9        30.02R FOG     WCI  29
MUSCATINE *    CLOUDY    37  34  87 W9G16     30.02R FOG     WCI  31
QUAD CITIES    CLOUDY    36  34  92 W10       29.98R FOG     WCI  28
$$

IAZ062-063-075>077-085>089-095>099-172300-
   SOUTHEAST IOWA

CITY           SKY/WX    TMP DP  RH WIND       PRES   REMARKS
BURLINGTON     CLOUDY    37  34  89 W10       30.02R WCI  30
FAIRFIELD *    FOG       36  34  93 W10       30.03R VSB 1   WCI  28
FORT MADISON * CLOUDY    37  36  93 W9        30.04R WCI  31
KEOKUK *       CLOUDY    37  36  93 W15G22    30.04R WCI  28
OSKALOOSA *    CLOUDY    35  34  97 W12       30.04R FOG     WCI  27
OTTUMWA        CLOUDY    37  34  89 W12       30.04R WCI  29
WASHINGTON *   CLOUDY    36  34  93 W14       30.03R FOG     WCI  27
$$

ABBREVIATIONS USED IN REMARKS
   TC - TEMPERATURES IN CELSIUS
  WCI - WIND CHILL INDEX
   HX - HEAT INDEX
  VSB - VISIBILITY
$$





USA.gov is the U.S. government's official web portal to all federal, state and local government web resources and services.